Wind_Speed
24 24 24 24 23 23 23 23 23 23 23 22 22 22 22 22 22 22 22 21 21 21 20 20 19 18 18 17 16 15 15 15 15 14 14 14 15 16 16 17 18 19 20 20 21 22 23 24 24 25 25 26 27 27 27 27 28 27 27 26 24 24 25 25 25 24 23 22 21 20 21 21 23 26 25 24 23 23 23 24 26 24 24 24 22 20 17 17
27 27 26 26 26 26 26 25 25 25 25 25 25 25 24 24 24 24 23 23 22 22 21 20 20 19 18 17 17 16 16 17 18 17 16 17 17 18 19 19 19 20 21 22 23 23 24 25 26 27 27 28 28 29 29 29 28 27 26 24 23 25 25 25 26 26 25 23 23 22 23 22 24 26 25 24 23 24 23 24 27 25 25 27 25 21 18 18
28 28 28 28 28 28 27 27 27 27 27 27 26 26 26 25 25 24 24 24 23 23 22 21 21 20 19 19 18 18 18 19 21 20 19 20 20 21 21 21 21 22 22 24 25 26 27 27 28 29 29 29 29 29 29 28 28 26 25 24 23 25 25 25 27 28 27 26 24 25 25 24 25 26 25 25 24 24 23 24 27 25 25 28 27 23 18 18
29 29 28 28 28 28 28 28 27 27 27 27 27 26 26 26 25 25 24 24 24 24 23 23 23 22 21 21 20 20 21 22 24 23 22 23 23 24 24 24 24 25 26 27 28 28 29 29 30 30 29 28 28 28 27 27 27 25 25 25 24 26 25 26 29 30 30 29 27 27 27 25 25 26 26 26 23 22 23 25 26 24 24 27 27 24 20 20
29 28 28 28 28 28 27 27 27 27 27 26 26 26 26 26 25 25 25 25 25 25 25 25 25 25 24 23 23 23 24 25 27 26 25 26 27 27 27 27 28 28 28 29 29 29 29 29 29 28 27 26 26 26 26 28 29 27 25 27 27 28 27 27 30 32 31 31 30 29 28 25 25 26 27 25 20 19 23 25 26 25 24 25 25 24 21 21
30 29 29 29 28 28 28 28 27 28 27 27 27 27 27 27 27 27 27 28 27 28 28 27 28 27 27 27 26 26 26 29 30 29 29 30 30 30 30 30 29 29 29 29 28 28 27 27 27 27 26 25 26 27 28 29 31 29 27 28 30 30 28 27 31 31 31 32 31 31 29 27 26 26 24 22 19 19 23 26 26 24 24 24 23 23 22 21
32 32 32 31 31 31 31 30 30 30 30 30 30 30 30 30 30 30 30 31 31 31 31 31 31 30 31 30 29 29 28 31 34 33 32 33 33 32 31 30 29 29 28 27 27 26 26 26 27 27 27 27 28 29 31 31 32 32 29 29 31 30 28 28 30 30 30 31 32 33 31 28 28 24 19 19 20 21 24 26 25 22 22 22 23 23 22 22
36 35 35 35 35 34 34 34 34 34 34 34 34 34 33 33 34 34 34 34 34 35 34 34 34 34 34 32 32 30 28 33 36 35 34 33 32 31 30 29 28 27 27 27 26 27 27 28 29 30 30 30 31 31 32 34 33 33 32 31 30 30 29 29 30 30 31 32 34 35 32 30 30 24 16 17 22 24 26 27 26 25 23 24 26 26 26 25
38 38 38 37 37 37 37 37 37 37 37 37 37 36 36 36 36 36 37 37 37 37 36 37 36 36 36 34 34 28 27 35 37 35 34 32 30 29 28 27 27 27 27 27 27 28 30 31 32 33 34 33 33 33 33 35 34 33 33 32 30 30 30 30 29 30 32 34 36 37 34 32 33 27 16 17 27 30 29 28 27 27 25 26 28 29 29 28
38 38 38 38 38 38 38 38 38 39 39 39 38 38 38 38 38 38 38 38 38 38 37 37 36 36 34 33 31 23 26 35 33 32 32 30 29 28 27 27 27 27 28 29 30 32 33 34 34 35 36 34 34 34 34 35 35 34 35 33 31 31 30 29 29 30 34 37 37 39 38 33 34 31 20 20 31 32 31 29 28 28 26 27 28 28 29 29
37 37 37 37 37 37 37 38 38 39 39 39 38 38 38 38 38 38 38 37 37 36 36 35 34 33 32 30 25 20 26 32 29 30 31 31 31 29 29 29 29 31 31 32 34 35 35 36 36 37 37 36 34 35 35 35 36 35 36 35 32 32 30 29 31 33 36 37 38 42 42 36 34 33 27 27 32 31 31 29 27 29 28 28 28 28 29 28
36 36 36 36 36 36 36 36 36 37 37 37 37 36 36 36 36 36 36 35 35 35 34 34 33 32 31 27 22 22 26 28 28 31 32 33 33 32 32 33 33 34 34 35 36 37 37 37 38 38 38 37 35 35 35 35 36 36 38 38 34 34 31 29 35 36 36 38 39 44 46 38 34 33 31 33 34 32 32 29 28 29 28 29 30 30 29 28
37 37 37 37 36 36 36 36 36 36 36 36 36 35 35 35 35 35 35 35 35 35 34 35 34 33 32 27 24 26 28 28 31 34 35 36 36 35 36 36 36 36 36 37 37 38 39 38 39 39 38 37 35 36 37 36 37 37 40 40 37 38 34 31 37 36 35 39 41 46 49 41 33 32 32 35 35 33 33 30 29 29 29 30 32 33 32 30
40 40 39 39 39 38 38 38 38 38 37 37 37 37 36 36 36 36 36 36 37 37 37 37 37 37 36 31 28 30 31 32 35 37 39 39 38 38 38 38 38 38 38 38 38 39 39 39 39 39 37 37 36 37 39 40 39 39 42 43 41 42 39 34 35 35 35 40 42 46 50 44 34 29 30 34 35 34 33 30 28 29 30 31 32 33 33 31
42 42 42 42 41 41 41 41 41 41 40 40 40 40 39 39 39 39 39 39 40 40 40 41 40 41 40 35 32 33 33 36 38 39 40 40 39 39 38 39 40 40 41 40 40 40 40 40 40 39 38 37 38 39 41 43 41 40 43 45 43 45 43 37 33 34 36 41 44 48 51 46 35 29 29 31 33 33 32 29 27 27 28 28 29 31 32 31
44 44 44 44 44 44 44 44 44 43 43 43 43 42 42 42 42 42 42 43 43 43 43 43 43 44 43 38 35 35 35 37 39 40 41 40 40 40 40 40 40 41 41 41 41 41 41 42 41 41 41 39 39 40 43 46 43 40 45 48 46 45 45 41 34 32 37 43 46 48 52 48 38 33 31 29 31 33 32 28 26 26 27 26 27 28 29 30
46 45 45 45 45 46 46 46 46 46 45 45 45 45 44 44 44 44 45 45 45 45 45 45 45 46 45 41 38 37 37 39 40 41 41 41 40 40 40 40 40 41 41 42 42 42 42 44 44 44 43 41 39 41 46 48 45 44 46 48 47 46 46 45 38 34 38 45 48 49 51 48 42 38 34 31 32 34 32 29 28 27 27 26 26 27 27 28
46 47 47 47 47 47 47 47 47 47 47 46 46 46 46 46 46 46 46 46 47 47 47 47 46 47 46 43 40 38 39 40 40 40 40 40 40 40 41 41 41 41 42 43 43 43 45 46 47 47 45 41 41 43 48 49 47 47 48 48 48 47 47 46 42 38 41 46 49 50 50 48 45 40 35 33 34 35 32 30 30 29 27 27 27 26 26 27
47 47 47 47 47 47 48 48 48 48 48 48 48 48 48 48 47 47 47 47 47 47 48 48 47 47 46 44 42 42 41 41 41 41 40 40 40 41 42 42 43 43 44 44 45 45 46 48 49 49 45 42 43 46 49 48 48 49 49 49 49 49 49 46 43 43 45 49 51 50 50 50 47 42 37 34 36 37 33 32 33 30 28 28 27 25 25 26
48 48 48 48 48 48 48 48 48 48 48 49 49 49 49 49 49 49 49 48 48 48 49 49 48 48 47 45 45 45 45 43 43 41 40 40 41 42 43 43 44 45 45 45 47 48 48 50 51 48 44 43 46 48 48 48 49 50 50 51 51 51 51 47 44 45 47 52 53 49 49 51 49 44 40 37 36 36 34 34 33 30 29 28 25 25 25 26
51 50 50 50 50 50 50 49 49 49 49 49 50 50 50 50 50 50 50 49 48 49 50 49 50 50 47 46 47 48 48 47 44 42 41 41 42 43 44 44 45 46 45 47 49 49 50 53 51 46 44 46 48 48 48 49 49 50 51 51 52 52 52 49 47 47 49 53 54 52 51 51 49 46 45 41 36 33 33 34 33 30 28 27 26 25 26 26
53 53 52 52 52 52 52 52 52 51 51 51 51 51 52 51 51 51 51 49 47 49 51 50 51 51 49 49 50 49 50 49 46 44 43 43 43 44 45 45 45 46 46 47 48 49 51 53 50 46 47 48 47 47 49 49 50 50 50 51 53 52 51 52 50 48 50 53 54 54 53 52 50 48 48 45 38 31 31 34 34 31 28 27 28 28 27 27
55 55 55 55 55 55 54 54 54 54 54 53 53 53 53 53 52 52 52 52 48 47 50 51 52 52 51 52 52 51 51 50 47 46 45 45 45 45 46 46 46 47 47 46 46 48 51 51 48 47 47 47 47 48 49 49 49 49 48 50 52 49 49 52 51 49 50 52 55 56 55 54 53 51 48 48 43 35 32 33 35 34 30 28 30 31 31 30
56 56 57 57 58 57 57 56 55 55 55 55 55 54 54 54 54 54 54 54 52 48 48 50 52 54 53 53 53 53 52 51 49 49 47 47 47 47 47 47 47 47 46 44 45 48 50 49 47 46 46 46 47 48 47 48 48 47 47 49 49 47 48 51 52 51 51 51 53 55 57 56 56 55 49 48 48 42 37 37 38 38 36 33 32 32 33 33
56 56 56 55 56 57 57 57 57 57 58 57 57 57 57 56 56 56 56 57 56 53 50 50 52 54 55 55 54 54 53 52 51 50 49 48 47 47 46 46 47 46 44 44 47 49 49 46 45 45 45 45 46 46 46 45 47 48 47 46 47 47 49 50 50 52 54 54 53 53 56 56 57 58 53 49 51 49 44 43 43 44 42 40 37 35 35 35
54 54 54 53 52 52 54 55 57 58 57 57 57 57 57 58 57 57 57 58 58 57 55 53 52 54 55 56 56 55 53 51 50 48 46 45 45 45 44 44 44 45 44 45 47 49 47 44 44 45 45 46 46 45 43 44 47 49 47 44 45 48 49 49 50 52 54 56 56 55 57 57 58 60 56 51 52 54 50 46 45 46 45 43 41 39 39 38
51 52 51 51 50 50 51 52 54 55 55 55 56 56 57 57 57 57 56 58 59 58 58 58 55 54 53 53 54 53 49 47 47 46 45 45 45 45 46 45 45 46 46 46 48 47 45 44 45 45 46 46 46 43 42 44 47 49 47 45 46 47 48 49 50 52 54 57 59 59 59 60 61 61 59 56 56 58 54 50 49 47 45 43 41 40 41 41
48 49 49 50 50 50 50 50 49 48 49 50 50 52 54 54 55 55 55 57 59 59 58 57 56 54 51 49 50 49 47 47 47 47 47 47 47 46 46 46 46 46 46 47 48 47 45 46 46 46 46 45 43 42 43 44 46 47 47 47 47 48 48 49 51 52 55 57 61 62 60 60 61 61 61 61 61 60 54 51 51 49 47 45 43 42 41 42
42 42 42 44 45 46 46 45 44 44 46 47 47 49 50 50 52 52 54 58 60 60 58 56 56 55 53 51 50 48 48 48 48 47 46 46 45 44 43 43 44 44 44 45 45 44 44 45 45 46 45 43 42 43 43 44 45 46 46 47 48 48 49 51 52 53 55 58 62 62 60 60 61 61 63 64 63 61 57 52 51 50 50 50 48 46 45 45
40 40 40 40 41 42 42 41 42 44 47 47 47 48 48 48 50 51 55 59 59 58 57 56 56 55 54 53 51 50 50 49 49 47 46 45 44 43 42 42 43 43 43 44 44 42 42 44 44 44 44 43 44 44 44 45 46 46 47 48 49 51 52 53 55 55 57 59 60 59 58 58 60 62 64 65 64 63 60 57 55 53 53 54 54 52 51 51
44 46 47 47 47 46 45 45 45 46 47 47 47 46 46 47 48 52 58 59 56 55 55 55 55 54 53 53 52 52 51 49 49 47 47 47 46 45 45 45 46 47 47 48 47 47 47 47 48 47 47 47 48 49 49 50 50 50 51 52 53 55 56 57 58 58 59 60 59 58 58 58 60 63 65 65 63 63 62 60 59 59 59 59 59 58 56 57
47 47 48 49 49 49 49 49 49 49 49 48 48 47 46 47 48 52 55 54 53 54 54 53 54 54 53 53 52 52 51 50 50 49 49 49 48 47 47 48 49 50 52 53 53 53 54 54 54 54 54 53 54 54 55 55 54 54 55 55 56 57 58 60 61 60 61 61 60 59 60 62 63 63 65 64 62 61 61 62 61 62 64 64 64 64 63 62
54 53 51 50 49 50 50 50 51 51 51 51 52 51 50 52 54 55 53 49 50 52 51 51 53 53 53 53 52 53 53 52 53 53 53 52 51 50 50 51 52 53 55 57 57 59 59 59 58 58 58 57 57 57 57 57 57 57 56 56 56 57 58 61 61 61 62 63 62 61 63 66 66 65 66 65 62 61 62 64 65 66 69 70 70 70 70 69
62 61 59 57 56 56 56 55 55 54 54 55 55 55 55 57 58 58 56 53 51 51 51 52 53 54 54 54 54 55 54 54 55 54 54 55 55 54 53 53 54 55 57 58 60 61 62 62 62 61 61 61 61 60 61 61 60 60 60 59 60 59 58 60 60 62 64 65 65 65 67 69 67 67 68 67 66 66 66 67 69 72 74 74 75 75 75 75
66 66 65 64 63 62 61 60 59 58 57 56 55 57 61 62 61 60 59 59 58 56 54 54 54 56 57 57 57 57 56 56 57 56 56 57 57 57 56 56 56 56 57 58 60 61 62 64 64 63 63 62 62 63 63 63 63 64 64 63 63 60 59 60 62 62 64 66 69 70 71 71 68 67 67 67 69 69 70 71 72 75 76 75 76 76 75 75
67 67 67 67 66 65 65 64 62 61 59 57 58 61 64 63 62 61 59 58 59 59 57 56 56 57 58 58 58 57 57 57 57 58 58 59 59 59 58 57 57 57 57 58 59 60 62 64 64 63 64 63 62 62 62 62 63 64 65 63 62 60 60 61 62 61 60 63 66 66 68 68 66 65 65 65 66 67 70 71 71 72 73 72 72 72 72 72
66 66 66 65 65 65 66 65 63 62 61 60 62 65 65 62 61 60 58 57 57 58 58 58 60 60 60 60 60 59 59 59 59 59 60 60 61 62 60 59 60 60 59 60 60 60 62 64 65 64 64 64 64 63 63 63 63 62 60 58 57 58 58 57 57 57 55 58 61 61 63 65 63 66 68 64 63 65 66 67 68 69 69 69 70 70 70 70
65 66 66 65 64 64 64 64 63 63 62 64 67 68 66 63 61 58 58 57 57 58 59 60 61 62 62 62 62 61 61 62 62 62 62 62 64 65 64 62 63 62 61 60 60 60 61 62 65 67 66 65 64 65 66 65 62 58 55 54 54 54 55 54 54 55 54 57 61 61 62 63 63 66 66 60 59 61 61 61 63 65 67 69 70 70 70 70
66 66 65 65 65 66 65 65 64 64 65 67 67 66 64 62 60 59 58 58 58 59 61 61 61 62 63 63 63 63 63 64 64 64 65 65 65 65 63 63 63 63 62 62 62 63 62 61 65 67 67 66 65 65 64 60 56 54 54 54 54 54 56 56 56 57 57 58 61 61 61 61 60 60 58 56 58 60 59 58 59 61 64 67 69 69 70 70
67 67 66 66 65 65 65 65 66 67 68 67 66 65 64 62 60 58 58 58 59 59 59 59 60 61 62 63 63 64 64 65 65 65 66 66 65 64 62 63 63 62 62 61 59 58 56 55 57 60 63 66 67 66 63 59 56 57 57 55 53 52 52 51 52 52 52 54 56 57 59 59 55 53 55 58 60 61 60 59 60 62 64 66 67 68 68 69
67 67 67 66 65 64 64 64 64 65 65 65 64 63 62 60 59 58 58 58 58 58 58 58 59 59 60 60 61 61 62 63 63 64 65 65 64 64 63 63 62 60 58 56 54 54 52 54 57 60 64 68 67 64 63 63 62 62 62 61 59 59 58 59 61 59 58 59 59 59 63 61 52 49 53 56 57 58 60 61 62 64 66 67 68 69 69 70
67 67 66 65 65 63 63 63 62 61 62 61 60 59 58 58 59 59 59 59 58 58 58 58 58 58 58 58 59 59 61 62 62 62 63 63 63 63 63 63 62 62 60 60 60 60 60 63 66 67 67 66 65 64 65 67 67 66 66 66 65 66 66 68 71 70 69 70 69 69 74 72 62 58 59 60 60 61 61 61 62 64 65 66 68 70 72 74
65 65 65 65 64 63 63 63 62 61 61 59 57 56 57 58 58 58 59 60 60 59 58 58 58 57 58 58 58 59 60 61 62 62 62 63 63 62 62 62 62 62 62 62 62 62 63 64 66 66 66 65 64 64 66 67 66 66 65 64 64 65 66 67 70 71 71 73 72 73 77 77 71 68 69 70 71 70 70 71 71 71 72 72 73 76 78 81
64 64 64 64 64 64 64 64 62 62 61 60 59 59 59 59 59 59 59 60 60 59 59 59 58 58 59 59 60 60 60 62 64 63 62 63 63 63 62 61 62 61 61 62 62 62 62 62 62 64 65 66 65 64 65 65 64 64 64 64 64 65 66 69 71 71 72 73 72 71 73 73 70 69 69 70 70 71 73 77 78 80 81 82 82 83 85 87
64 64 64 64 65 65 65 64 63 63 62 62 62 62 61 61 60 59 59 60 60 60 60 60 60 60 60 61 62 62 61 62 63 64 63 63 63 63 63 62 62 62 61 62 61 61 62 62 62 62 63 64 65 65 66 65 66 66 66 66 66 66 67 69 71 71 71 71 70 69 69 69 69 69 68 69 70 70 71 73 75 77 80 81 82 84 85 86
64 65 65 65 66 66 66 65 64 64 63 63 63 62 61 61 60 59 59 59 59 60 60 61 61 61 61 61 62 62 61 61 62 63 63 64 64 63 62 62 62 62 61 61 61 61 63 64 64 64 64 63 64 65 65 66 67 67 67 66 66 65 65 66 68 70 70 72 74 72 71 72 72 71 71 72 74 75 74 75 76 77 79 81 82 83 83 84
65 65 64 65 65 65 65 65 64 64 64 63 63 62 61 60 60 59 59 59 59 59 59 60 60 60 61 60 61 61 61 61 62 62 62 63 63 63 62 61 61 61 61 61 61 61 63 66 65 65 66 65 65 67 67 68 69 68 68 68 67 67 68 68 71 72 72 74 79 77 75 77 76 74 74 75 75 76 77 77 77 78 79 80 80 80 81 82
65 65 64 64 64 63 63 63 63 62 63 63 63 62 61 60 59 59 59 59 59 59 59 60 60 59 59 59 60 61 61 61 61 61 61 61 61 62 62 61 61 61 61 62 62 62 64 67 66 65 67 67 67 68 68 69 70 70 70 70 70 70 71 73 75 76 75 79 82 79 77 78 77 74 75 75 75 76 76 76 77 77 78 78 78 78 78 79
63 62 61 62 61 61 61 61 60 60 60 61 61 60 58 58 57 57 57 58 59 58 58 59 59 58 58 58 59 60 60 60 61 60 59 59 60 61 61 61 61 60 60 61 62 63 65 67 66 67 69 68 68 68 68 69 71 72 72 73 73 73 73 74 75 74 75 78 79 78 78 78 76 75 75 76 75 76 77 77 77 78 78 78 77 77 76 76
60 59 59 59 58 58 58 58 58 57 57 58 58 57 56 56 56 56 57 57 58 57 56 57 58 57 57 57 58 59 58 58 59 59 59 59 60 60 61 61 61 61 61 61 62 63 66 67 67 68 70 70 69 69 69 70 72 73 74 74 74 74 74 74 73 72 73 76 77 76 78 78 77 76 76 76 76 76 77 77 76 76 76 76 75 75 75 75
57 57 57 57 57 56 56 56 55 55 55 55 56 55 55 56 56 56 57 57 57 56 56 56 57 56 56 56 56 57 57 57 57 58 58 59 59 60 60 61 61 61 61 61 62 63 65 66 67 68 71 72 69 69 71 72 73 75 75 74 73 73 74 74 73 72 72 74 75 75 76 78 77 77 77 77 77 76 75 75 75 75 75 76 77 77 77 77
55 55 54 54 55 54 53 53 53 54 54 53 54 54 54 54 54 55 56 56 56 55 55 55 56 56 56 55 55 55 56 56 57 57 57 58 58 59 59 60 59 59 59 59 61 62 62 65 66 67 71 72 68 69 73 73 76 78 75 71 71 73 74 75 75 74 72 72 74 75 76 76 75 75 76 76 77 76 76 76 76 77 78 79 80 81 81 81
Wind_Direction
252 253 253 254 255 256 257 258 260 261 262 263 265 266 267 269 270 272 274 275 277 278 279 280 281 281 282 282 281 280 279 279 280 280 282 283 282 281 281 281 281 280 281 282 284 287 288 290 292 293 296 297 299 301 302 303 304 308 310 313 311 304 303 305 304 305 308 311 312 310 308 308 303 302 306 305 302 297 294 290 287 287 285 281 280 279 276 271
255 255 256 257 258 259 260 261 262 263 264 264 266 267 268 270 271 272 273 274 275 276 276 277 277 277 278 278 278 278 278 280 281 281 284 285 283 283 283 283 284 284 284 285 286 287 288 290 291 293 295 296 298 299 301 302 303 306 308 311 306 300 304 304 301 304 306 308 309 308 305 304 300 300 303 302 300 299 296 289 288 290 287 285 284 282 277 272
256 257 258 259 260 261 262 263 264 264 265 266 267 268 269 270 271 272 273 273 274 274 274 274 274 275 275 276 277 277 279 281 282 283 285 284 282 282 283 284 284 285 286 287 288 288 289 290 291 292 293 295 297 298 300 301 301 305 307 307 303 300 304 302 300 303 304 306 308 305 302 301 299 299 300 299 300 301 296 289 289 291 287 286 288 288 283 275
256 257 258 260 260 261 262 263 264 265 265 266 267 268 268 269 270 271 272 272 273 273 274 274 275 275 276 277 277 279 281 282 283 284 284 283 282 283 284 284 285 286 286 287 287 287 288 289 290 291 293 295 297 298 300 300 300 304 306 306 302 300 303 302 300 301 302 304 305 301 299 298 298 298 298 300 306 307 298 291 291 289 285 284 286 289 287 280
255 256 257 258 259 261 262 262 263 264 265 266 267 268 268 269 269 270 271 271 272 273 273 275 276 276 277 278 279 281 283 283 283 283 284 283 283 283 284 286 286 286 286 285 286 286 287 288 290 291 292 294 296 297 298 298 299 302 304 303 300 298 302 301 297 299 301 302 302 298 295 296 297 297 299 308 317 309 298 292 288 286 285 283 284 286 287 284
255 256 257 258 259 260 261 262 263 264 265 266 267 267 268 269 270 270 271 271 272 272 273 274 275 276 278 279 280 282 284 285 283 282 283 283 283 284 285 285 285 285 284 284 284 285 286 287 288 289 291 293 294 295 295 296 297 299 302 300 297 298 301 298 296 299 301 300 299 295 294 296 297 300 308 322 324 304 291 285 283 286 289 289 288 287 285 284
256 257 258 258 259 260 261 262 263 264 264 265 266 267 268 269 270 271 271 272 272 273 274 275 276 277 277 278 280 281 285 284 280 280 281 281 283 284 284 284 283 283 283 283 284 284 285 286 287 288 289 291 292 293 294 294 295 298 299 296 295 298 299 296 296 299 298 298 295 291 293 294 297 309 326 335 321 297 283 279 283 290 293 293 291 286 283 282
256 257 257 258 259 260 261 262 262 263 264 265 265 266 267 268 270 270 271 272 272 273 274 275 276 276 276 278 278 280 283 278 277 279 281 281 282 282 281 281 282 282 282 283 283 283 284 285 286 288 289 290 291 292 293 293 295 297 296 294 296 297 296 296 297 298 296 294 290 289 291 292 297 312 339 336 310 290 282 283 288 292 292 291 288 286 284 282
257 258 258 259 259 260 261 262 263 263 264 265 266 267 267 268 269 270 271 271 272 273 274 274 275 275 276 276 276 280 278 273 275 279 281 281 280 279 279 279 280 281 281 282 283 283 284 286 287 288 289 290 291 292 292 293 294 295 294 294 295 294 294 296 297 297 293 290 288 289 291 294 298 306 329 323 297 288 289 292 295 295 293 288 284 284 285 285
258 259 259 260 260 261 262 262 263 264 265 265 266 267 268 269 269 270 271 271 272 273 273 273 274 274 275 275 277 278 271 270 276 279 279 279 278 278 279 280 280 281 281 282 283 284 285 287 288 288 289 290 292 292 292 293 294 294 293 293 294 293 294 295 296 293 289 288 290 291 293 297 298 302 313 302 287 287 293 295 297 297 296 291 287 285 285 287
259 260 260 261 261 262 262 263 264 264 265 266 267 268 268 269 269 270 271 271 272 272 273 273 273 273 273 274 277 271 266 271 277 277 277 278 278 279 280 280 281 282 282 283 284 285 286 287 288 288 289 291 292 292 292 293 294 294 293 293 294 293 294 296 293 287 287 291 295 294 294 295 297 300 304 293 285 289 292 295 297 297 297 295 294 293 291 292
260 261 261 262 262 263 263 264 264 265 266 267 267 268 268 268 269 269 270 271 271 272 272 272 272 272 272 273 274 268 267 273 275 275 276 277 279 281 281 281 281 281 283 283 284 285 286 286 287 288 289 290 292 292 292 292 292 293 293 292 294 292 293 293 287 286 291 295 296 294 292 293 295 297 297 291 289 291 291 294 295 294 296 297 297 297 296 296
261 261 262 262 263 263 264 264 265 266 266 267 267 267 268 268 268 269 269 270 270 271 271 271 271 271 271 272 271 270 271 272 273 274 276 278 280 281 281 282 282 282 282 282 283 284 284 286 286 287 288 290 291 291 291 291 292 293 292 292 294 290 287 284 284 289 295 294 294 292 290 291 293 295 293 290 290 292 291 293 294 293 295 295 296 296 296 295
261 261 262 262 263 263 264 264 265 266 266 267 267 268 268 268 268 269 269 269 270 270 270 271 272 272 272 272 272 272 273 272 272 274 275 277 279 280 281 282 282 282 282 282 282 283 284 284 285 286 287 288 290 291 292 292 292 293 292 291 291 287 284 283 286 293 294 291 290 289 288 288 291 293 291 289 291 292 292 293 294 293 292 291 291 291 291 291
261 262 262 263 263 264 264 264 265 265 266 266 267 268 268 268 269 269 269 270 270 271 271 272 272 273 273 273 273 272 273 273 273 274 275 276 277 278 280 280 281 282 282 282 283 283 283 283 284 284 285 287 289 292 293 292 293 294 292 290 288 287 289 290 292 296 295 291 288 287 286 287 291 293 289 289 291 292 292 295 294 291 289 288 286 284 284 285
261 262 263 263 264 264 265 265 265 265 266 266 267 268 268 269 269 270 270 270 270 271 272 272 273 273 274 273 273 273 272 272 273 274 274 274 275 277 278 279 280 281 282 283 283 283 283 283 283 283 284 286 290 293 293 291 292 293 290 289 289 290 293 294 295 297 294 289 286 285 285 288 292 292 289 291 293 292 293 295 293 289 288 287 284 281 280 280
262 262 263 263 264 264 265 265 265 266 266 267 267 267 268 269 269 270 270 270 271 271 272 272 273 273 274 274 273 272 272 271 271 272 273 274 275 276 277 278 279 280 281 281 281 282 282 282 282 283 283 287 292 295 291 289 291 289 287 289 291 293 293 293 296 297 291 286 285 284 284 288 291 291 292 295 293 291 292 294 292 289 288 288 286 284 281 278
262 262 263 263 263 264 265 265 266 266 266 267 267 268 268 268 269 269 270 270 271 271 272 272 273 273 274 274 274 272 270 270 270 270 271 273 274 275 276 277 277 278 279 279 280 281 281 281 281 281 284 290 294 291 287 287 289 288 288 290 290 291 291 292 297 296 289 284 282 283 284 286 287 289 292 294 292 289 291 293 291 289 288 287 285 284 281 277
262 262 262 262 263 263 264 265 265 266 266 267 267 267 268 268 268 268 268 269 270 271 271 272 272 273 274 275 274 272 270 269 269 269 270 272 273 274 275 275 276 277 277 278 279 279 279 279 279 281 287 291 289 284 283 285 287 288 289 289 290 290 290 293 295 293 288 284 281 282 285 286 286 289 290 289 288 289 292 292 289 290 289 286 284 281 277 274
263 263 263 263 264 264 264 264 265 265 266 266 266 266 266 267 267 267 267 268 269 269 270 271 272 272 273 274 274 272 271 269 268 269 270 271 272 272 273 274 275 275 276 277 277 277 277 278 278 282 287 286 282 281 283 285 286 287 287 288 289 289 290 293 293 290 288 286 285 286 287 286 287 290 289 285 284 287 291 290 289 290 289 286 282 276 271 269
264 264 265 265 265 265 265 265 265 266 266 266 267 267 267 267 267 267 267 268 269 270 271 271 272 272 273 273 272 272 272 270 270 271 271 271 271 271 272 272 272 273 274 274 275 276 277 277 279 283 283 280 279 281 282 283 283 284 286 288 288 288 290 291 290 288 288 288 290 291 289 287 289 290 288 285 284 287 290 289 289 288 288 286 280 271 266 265
265 265 266 266 266 266 266 266 266 266 266 267 267 268 268 269 269 269 269 268 268 271 273 273 273 273 273 273 271 272 272 272 273 273 272 272 271 271 271 270 271 272 272 272 274 276 276 276 279 280 278 277 279 279 279 279 281 282 285 286 286 288 290 288 287 288 288 289 291 291 290 289 291 290 288 288 288 288 288 288 289 288 285 283 279 273 270 269
263 264 265 265 265 266 266 266 265 266 266 266 266 267 268 269 269 270 270 270 268 268 271 273 273 273 273 273 273 273 273 275 276 275 275 273 272 271 271 272 272 272 272 273 275 275 274 275 277 277 277 277 277 277 277 278 279 281 283 283 284 287 288 287 287 287 287 288 289 289 288 288 289 286 285 289 290 290 289 288 287 286 284 280 276 275 275 277
263 263 264 264 264 264 265 265 265 265 265 265 266 266 267 268 269 270 271 272 272 269 269 271 272 273 273 273 273 274 275 276 277 277 276 275 274 273 273 273 273 273 274 275 273 272 273 275 276 276 277 277 277 276 277 277 279 280 280 280 282 285 285 285 287 287 286 286 287 288 287 286 286 284 284 288 291 292 291 290 290 289 288 285 279 275 275 277
262 263 263 264 264 263 263 264 264 264 264 265 266 267 268 268 269 270 271 273 273 273 272 270 269 270 272 273 273 274 275 277 278 278 278 277 276 275 274 274 273 274 274 272 271 270 271 274 276 276 276 276 275 276 277 278 278 278 277 279 282 283 283 284 286 287 287 286 285 285 284 282 282 282 284 289 293 293 291 293 294 293 293 292 288 282 277 276
262 263 264 265 266 266 265 264 265 265 266 266 267 267 268 269 269 270 271 272 273 274 275 272 269 268 269 272 274 275 276 277 277 277 277 277 277 276 275 274 274 274 272 271 270 270 271 273 274 274 274 274 274 274 276 276 276 276 277 279 279 280 281 283 284 285 286 286 285 285 283 280 279 281 284 289 291 290 291 293 292 291 293 294 294 291 287 283
263 264 266 267 268 268 267 267 267 268 268 269 269 269 269 269 270 270 272 272 272 273 275 275 273 271 270 272 273 275 277 278 278 278 278 278 277 276 275 275 274 274 273 272 271 272 273 273 272 272 272 272 273 274 274 273 273 276 278 278 278 279 281 282 283 284 284 284 283 282 283 282 281 283 287 289 288 287 292 295 293 291 291 291 293 293 291 289
265 266 267 267 267 267 268 269 270 271 272 272 272 272 272 273 273 274 274 274 271 271 274 276 276 276 276 276 274 274 275 276 278 279 280 279 278 277 276 275 274 273 273 272 273 273 273 272 272 272 271 271 272 272 271 271 273 276 277 277 278 279 279 280 280 281 281 280 279 279 282 284 283 284 288 288 287 289 293 297 297 296 295 293 291 287 284 283
265 266 267 267 268 267 268 269 269 270 271 271 272 272 273 274 275 276 275 273 270 270 273 276 278 279 280 280 279 279 278 278 279 279 279 279 279 279 278 276 275 274 273 273 274 274 273 273 272 271 272 272 272 271 271 273 274 275 276 277 278 278 277 278 277 277 277 276 276 278 284 287 285 283 284 284 286 290 292 293 293 295 295 294 291 288 286 283
257 259 262 264 266 268 269 269 268 268 269 270 271 271 271 272 273 274 273 271 270 272 274 276 277 279 281 282 283 283 282 282 282 281 280 280 280 281 280 280 278 277 275 275 275 275 274 274 274 274 275 275 275 275 276 276 276 277 278 278 278 277 277 276 275 276 276 275 275 280 285 287 284 281 282 283 286 290 291 291 291 291 290 289 289 288 288 286
252 254 258 260 262 264 265 266 266 268 270 271 271 271 270 270 270 270 270 271 273 274 276 278 279 280 281 282 282 283 283 282 281 281 280 280 280 280 280 280 280 280 279 279 278 277 276 276 277 277 278 279 280 280 280 280 281 281 281 280 279 278 278 277 276 277 277 276 279 282 283 282 280 279 281 283 286 289 291 292 292 291 289 287 287 286 286 285
255 253 255 257 258 259 260 261 263 264 265 266 267 268 270 270 269 269 270 272 274 275 277 278 279 280 280 280 280 280 281 281 280 280 279 279 278 278 279 279 279 280 279 279 279 279 278 279 280 281 281 282 282 282 282 283 283 282 281 280 279 279 279 278 278 277 278 280 280 281 281 279 276 277 279 282 284 287 288 289 288 287 286 285 285 286 285 284
261 261 261 260 259 259 260 261 262 263 263 263 264 265 266 268 269 270 271 272 273 275 277 277 277 277 277 277 277 278 279 279 279 279 279 279 279 278 278 278 279 279 279 279 278 278 278 278 279 280 281 281 281 283 283 283 282 281 281 280 278 278 278 278 279 280 281 281 280 279 278 277 277 278 280 282 283 284 284 283 283 281 281 282 283 283 283 282
265 266 267 268 267 267 267 267 268 268 268 267 267 267 266 266 268 270 271 271 271 272 273 274 274 275 274 274 275 276 278 277 277 278 278 279 279 279 278 278 279 278 278 278 278 278 278 277 276 277 278 278 279 281 281 280 280 280 280 279 277 277 277 277 278 279 279 278 277 277 276 277 280 281 282 283 282 281 280 279 278 278 278 279 280 280 280 280
269 269 270 271 273 273 273 273 272 272 273 272 272 270 266 265 268 271 271 271 272 272 273 273 273 273 273 273 274 274 275 276 276 276 276 276 277 277 278 278 278 278 279 279 278 278 278 277 277 278 278 278 277 276 277 277 278 278 278 277 277 277 276 275 274 274 274 274 273 275 276 278 280 281 282 281 280 279 278 276 276 277 278 278 277 277 277 277
271 272 272 273 275 275 274 274 274 274 274 274 274 270 266 266 270 272 273 273 274 275 276 275 274 273 273 272 273 273 274 275 275 276 276 276 276 276 277 278 278 278 279 279 280 280 279 279 280 281 281 280 279 278 278 277 277 276 276 276 277 277 276 275 274 273 272 270 271 273 275 278 279 279 278 277 276 276 274 274 275 275 275 276 276 276 276 275
271 272 273 274 274 274 274 275 275 275 275 274 273 271 270 271 272 274 276 276 275 275 276 275 274 273 274 274 274 275 275 275 276 276 276 278 278 278 279 279 279 279 279 279 280 280 280 280 281 281 282 282 282 283 282 281 280 279 279 279 279 279 277 276 276 275 273 273 274 276 276 277 277 276 277 276 274 272 271 271 272 272 273 273 273 273 273 273
270 271 271 272 273 274 274 274 275 276 276 275 275 274 274 275 276 276 277 276 276 275 275 275 274 274 275 276 276 276 277 278 278 278 279 279 279 280 281 281 280 281 281 282 281 281 281 282 281 281 281 282 282 282 282 281 282 283 283 282 281 280 280 279 278 278 278 279 281 281 279 278 277 279 281 279 273 270 269 268 269 270 271 271 271 271 270 271
271 271 271 272 273 274 275 275 275 275 275 275 276 277 278 279 278 278 277 277 276 276 275 276 276 275 275 275 276 277 278 279 279 280 281 280 280 281 282 281 282 283 283 284 284 284 284 283 283 282 282 282 281 282 282 283 284 284 282 281 281 281 281 280 279 279 280 280 280 279 277 275 277 281 281 276 271 270 270 269 269 269 269 268 268 268 268 268
272 272 273 273 273 274 274 275 275 275 275 276 277 278 279 279 279 279 279 278 277 276 275 275 275 275 275 276 276 277 278 279 280 280 281 281 282 282 282 282 283 284 284 285 285 285 285 285 284 283 282 281 283 285 287 286 284 282 280 278 278 278 277 276 273 273 276 276 274 274 272 270 273 275 272 269 269 270 270 269 269 269 268 267 266 265 265 266
272 272 272 273 273 273 273 273 273 275 276 277 278 278 279 279 280 279 278 276 275 275 275 275 275 275 276 276 276 276 276 277 278 278 279 280 281 281 281 282 282 282 281 281 280 281 281 280 280 280 280 281 283 284 284 282 280 278 277 276 275 275 273 272 270 269 271 271 270 270 270 268 268 267 266 265 266 265 265 265 266 268 269 270 269 268 267 267
271 271 271 272 272 272 272 272 273 274 275 277 279 279 278 277 277 277 277 277 276 275 275 275 275 275 275 275 275 275 275 276 276 276 276 277 277 278 278 279 279 279 278 276 276 276 276 275 275 276 278 279 279 279 278 277 277 276 275 275 276 275 274 273 273 273 272 270 270 270 270 269 267 265 265 265 263 262 261 261 262 263 265 267 268 269 270 270
268 269 270 270 271 271 271 272 273 274 275 277 277 275 275 275 275 276 276 276 276 276 276 275 275 275 275 275 274 274 275 275 275 275 275 275 275 275 276 276 276 276 276 275 275 275 274 274 275 276 277 277 276 277 277 277 276 276 275 275 274 274 274 273 274 274 273 272 272 270 269 270 270 269 267 266 265 264 264 264 263 263 264 264 264 266 268 270
267 267 268 268 269 269 270 271 273 273 274 274 273 273 273 273 274 274 274 274 274 275 275 274 274 274 274 274 274 274 274 274 274 275 274 275 275 276 276 276 275 275 275 275 275 275 274 275 276 277 277 277 278 278 277 277 275 274 274 273 273 273 273 273 273 273 273 272 272 271 269 270 272 271 270 269 269 268 268 269 269 269 268 268 268 268 268 268
266 266 267 267 268 269 269 270 271 272 272 272 272 272 273 273 273 273 272 272 272 272 272 273 273 273 273 273 273 273 273 273 274 274 274 274 275 275 276 276 276 276 276 275 275 275 275 275 275 275 275 277 278 278 278 276 275 273 272 273 273 273 273 273 273 272 271 271 271 270 271 272 271 270 271 272 271 271 271 272 271 271 271 271 271 271 270 269
266 266 267 267 268 268 269 270 270 271 272 272 272 272 272 273 273 272 271 271 271 272 272 273 273 273 273 273 273 273 273 272 272 273 274 274 274 275 275 276 276 276 276 275 275 274 274 274 274 274 273 274 275 276 277 277 275 274 274 274 275 275 274 274 273 271 272 273 272 270 272 273 272 271 272 272 272 271 271 271 271 272 272 272 272 272 272 271
267 267 267 268 268 268 269 270 270 270 271 271 271 271 272 273 273 272 272 272 272 272 272 272 272 273 273 273 273 272 272 272 271 272 274 275 275 275 275 275 275 275 275 275 275 274 273 273 274 274 273 272 273 274 276 276 275 274 274 274 275 275 275 274 273 273 274 274 273 274 275 275 275 275 274 273 272 272 271 271 272 272 272 273 273 272 272 272
268 268 268 268 268 269 269 270 270 270 270 270 270 271 272 272 272 272 271 271 271 271 271 271 271 271 272 272 272 272 272 272 272 273 274 274 275 275 275 275 274 274 275 274 274 274 273 273 275 274 273 273 273 274 275 275 274 274 274 274 274 274 274 274 274 275 275 275 276 277 277 276 276 276 275 274 274 273 273 273 272 272 272 272 271 271 271 271
268 268 268 268 268 269 269 269 270 270 270 270 271 272 272 271 270 270 270 270 270 270 270 270 270 270 271 271 271 271 272 273 273 274 274 274 274 274 275 275 274 274 274 274 275 274 274 275 275 274 274 274 273 274 274 274 274 274 274 274 274 274 274 274 274 275 276 276 277 278 278 277 277 277 276 276 276 275 274 274 274 273 273 273 272 272 271 271
267 267 267 268 268 268 268 269 269 269 270 270 271 271 270 269 269 270 270 270 270 270 270 270 270 270 270 270 271 271 272 273 273 273 274 273 273 274 274 274 274 274 274 274 274 274 275 275 276 276 275 274 274 275 275 273 273 273 273 273 274 276 276 276 276 276 275 275 276 277 277 277 278 278 278 278 278 277 277 277 277 276 276 275 274 273 273 273
266 266 266 267 267 267 267 268 268 268 268 268 270 270 269 269 269 269 269 269 270 270 270 270 271 271 270 270 271 272 273 272 273 273 274 274 274 274 274 274 274 275 275 276 275 275 276 276 277 277 276 275 276 277 275 274 274 272 272 275 277 278 277 277 276 275 275 275 276 275 275 276 277 278 278 279 279 279 278 278 278 277 277 276 275 274 274 273
264 264 264 264 265 265 265 266 266 266 266 267 267 268 268 268 268 268 269 269 269 270 270 270 271 271 271 271 272 272 272 272 273 273 274 274 274 274 274 275 275 276 277 277 277 277 278 278 278 278 277 278 279 279 278 276 274 273 276 280 280 278 276 275 275 275 275 275 275 275 276 277 277 277 278 278 278 278 278 278 278 278 277 277 277 276 276 276
Height
5887 5887 5888 5888 5888 5889 5889 5889 5890 5890 5890 5890 5890 5891 5891 5891 5891 5891 5891 5891 5891 5891 5891 5891 5891 5891 5891 5891 5891 5891 5891 5890 5890 5890 5890 5890 5890 5889 5889 5889 5888 5888 5888 5887 5887 5886 5886 5885 5885 5884 5884 5883 5882 5882 5881 5880 5879 5879 5878 5878 5876 5873 5872 5871 5870 5870 5870 5870 5869 5868 5867 5867 5864 5862 5862 5862 5861 5860 5859 5858 5856 5857 5856 5855 5856 5856 5857 5857
5884 5884 5885 5885 5886 5886 5886 5887 5887 5888 5888 5888 5888 5888 5889 5889 5889 5889 5889 5889 5889 5889 5889 5889 5889 5889 5889 5889 5889 5889 5889 5889 5888 5888 5889 5888 5888 5887 5887 5887 5886 5886 5886 5885 5885 5884 5884 5883 5882 5882 5881 5880 5880 5879 5878 5878 5877 5877 5876 5876 5874 5871 5870 5869 5867 5867 5867 5867 5867 5866 5865 5864 5863 5860 5860 5860 5859 5857 5857 5855 5853 5854 5854 5852 5852 5853 5854 5854
5881 5882 5882 5882 5883 5883 5884 5884 5884 5885 5885 5885 5886 5886 5886 5886 5886 5887 5887 5887 5887 5887 5887 5887 5887 5887 5887 5887 5887 5887 5887 5886 5886 5886 5886 5886 5885 5885 5884 5884 5884 5884 5883 5883 5882 5881 5881 5880 5880 5879 5878 5878 5877 5876 5875 5875 5874 5874 5874 5873 5872 5869 5869 5867 5865 5864 5864 5864 5864 5863 5862 5862 5860 5859 5858 5857 5857 5856 5855 5853 5851 5852 5851 5849 5849 5850 5852 5852
5878 5879 5879 5880 5880 5880 5881 5881 5882 5882 5882 5883 5883 5883 5884 5884 5884 5884 5884 5884 5884 5884 5884 5884 5885 5885 5885 5885 5885 5885 5885 5884 5883 5883 5884 5883 5882 5882 5882 5882 5881 5881 5881 5880 5879 5879 5878 5877 5876 5876 5876 5875 5874 5873 5873 5871 5871 5872 5871 5870 5869 5868 5867 5865 5863 5862 5861 5861 5861 5860 5859 5859 5858 5856 5855 5855 5855 5855 5852 5850 5849 5849 5849 5847 5847 5847 5848 5848
5875 5876 5876 5877 5877 5878 5878 5878 5879 5879 5879 5880 5880 5880 5881 5881 5881 5881 5882 5881 5882 5882 5881 5882 5882 5882 5882 5882 5883 5883 5882 5881 5880 5880 5880 5880 5879 5879 5879 5879 5878 5878 5877 5877 5876 5875 5875 5874 5873 5873 5873 5872 5872 5871 5870 5868 5868 5869 5869 5868 5866 5865 5865 5864 5860 5859 5859 5858 5857 5856 5856 5856 5856 5854 5853 5852 5853 5853 5850 5846 5846 5846 5846 5846 5845 5845 5845 5845
5872 5873 5873 5874 5874 5875 5875 5876 5876 5876 5877 5877 5877 5877 5878 5878 5878 5878 5878 5878 5878 5878 5878 5879 5878 5879 5879 5879 5880 5880 5880 5878 5875 5876 5877 5876 5876 5875 5875 5875 5875 5874 5874 5873 5873 5872 5872 5871 5870 5870 5870 5870 5869 5868 5867 5866 5865 5866 5867 5865 5862 5862 5863 5861 5858 5857 5856 5854 5853 5852 5852 5853 5853 5852 5852 5851 5851 5850 5847 5844 5843 5844 5844 5844 5844 5843 5843 5842
5869 5870 5870 5871 5871 5872 5872 5873 5873 5873 5873 5874 5874 5874 5874 5875 5875 5875 5875 5875 5875 5875 5875 5875 5875 5876 5876 5876 5877 5877 5878 5874 5870 5872 5873 5872 5872 5872 5872 5872 5871 5871 5870 5870 5870 5869 5868 5868 5867 5866 5867 5867 5866 5865 5864 5863 5862 5862 5863 5862 5860 5859 5859 5858 5856 5855 5853 5851 5849 5847 5848 5850 5849 5850 5852 5850 5848 5846 5843 5841 5841 5842 5843 5842 5842 5841 5840 5840
5865 5866 5866 5867 5867 5868 5868 5869 5869 5869 5870 5870 5870 5871 5871 5871 5871 5871 5871 5871 5871 5871 5872 5871 5872 5872 5872 5873 5873 5874 5875 5869 5865 5868 5869 5869 5869 5868 5868 5868 5868 5868 5867 5867 5866 5866 5865 5864 5864 5863 5863 5863 5863 5862 5861 5859 5859 5859 5858 5858 5858 5857 5856 5855 5853 5852 5850 5848 5845 5843 5845 5847 5846 5848 5851 5849 5844 5841 5840 5840 5840 5841 5841 5840 5839 5838 5837 5837
5861 5862 5862 5863 5863 5864 5864 5865 5865 5865 5866 5866 5866 5867 5867 5868 5868 5867 5867 5867 5867 5868 5868 5868 5868 5868 5868 5869 5870 5872 5871 5864 5863 5864 5864 5865 5865 5865 5865 5865 5865 5865 5864 5864 5863 5862 5862 5861 5861 5860 5859 5860 5860 5859 5858 5856 5856 5855 5854 5854 5855 5854 5853 5852 5851 5849 5846 5843 5841 5839 5842 5844 5843 5845 5849 5847 5840 5837 5837 5839 5839 5838 5839 5837 5835 5835 5834 5834
5857 5857 5858 5858 5859 5860 5860 5860 5861 5861 5861 5862 5862 5863 5863 5864 5863 5863 5863 5863 5863 5864 5864 5864 5864 5864 5865 5865 5867 5870 5866 5860 5861 5862 5860 5861 5861 5862 5862 5862 5862 5862 5861 5860 5859 5859 5858 5857 5857 5856 5855 5856 5856 5855 5854 5852 5852 5851 5850 5850 5851 5850 5850 5849 5848 5846 5841 5839 5838 5836 5838 5841 5841 5841 5845 5844 5837 5835 5836 5837 5836 5835 5835 5833 5832 5832 5831 5831
5852 5853 5854 5854 5855 5855 5856 5856 5856 5856 5857 5857 5858 5859 5859 5859 5859 5859 5859 5859 5859 5859 5860 5859 5860 5860 5861 5862 5864 5865 5861 5859 5860 5858 5857 5857 5857 5859 5859 5859 5859 5858 5857 5857 5856 5855 5854 5854 5853 5852 5851 5852 5852 5851 5850 5849 5848 5847 5846 5846 5847 5846 5847 5847 5844 5842 5838 5836 5836 5831 5832 5838 5838 5837 5840 5838 5833 5833 5833 5834 5834 5832 5831 5830 5829 5829 5829 5829
5848 5849 5850 5850 5851 5851 5851 5852 5852 5852 5853 5853 5854 5854 5855 5855 5855 5855 5855 5855 5855 5855 5855 5855 5856 5856 5857 5860 5861 5861 5859 5858 5857 5855 5854 5853 5854 5855 5855 5855 5856 5855 5854 5853 5852 5851 5850 5850 5849 5848 5848 5848 5848 5847 5846 5846 5844 5843 5841 5841 5843 5842 5844 5844 5839 5837 5837 5834 5833 5827 5824 5832 5836 5835 5835 5832 5830 5830 5830 5831 5831 5829 5828 5827 5826 5825 5825 5826
5845 5845 5846 5846 5847 5847 5847 5848 5848 5848 5849 5849 5850 5850 5851 5851 5851 5851 5851 5851 5851 5851 5851 5851 5852 5852 5854 5857 5858 5857 5857 5856 5854 5852 5851 5850 5851 5851 5851 5851 5851 5851 5850 5849 5848 5847 5846 5846 5845 5844 5844 5844 5844 5843 5842 5842 5840 5840 5836 5835 5838 5837 5839 5841 5835 5835 5835 5830 5828 5823 5817 5824 5832 5832 5831 5827 5826 5826 5826 5827 5828 5826 5825 5824 5823 5822 5821 5821
5840 5841 5842 5842 5842 5843 5843 5843 5844 5844 5845 5845 5846 5846 5847 5847 5847 5848 5847 5847 5847 5847 5847 5847 5848 5848 5850 5853 5855 5854 5853 5852 5851 5849 5848 5848 5848 5848 5848 5847 5847 5847 5846 5845 5844 5843 5842 5842 5841 5840 5841 5840 5840 5839 5837 5836 5836 5836 5832 5831 5832 5829 5831 5837 5835 5834 5833 5826 5823 5818 5811 5817 5826 5829 5828 5824 5822 5822 5821 5823 5824 5823 5822 5821 5820 5818 5817 5817
5836 5836 5837 5838 5838 5839 5839 5839 5839 5840 5840 5841 5841 5842 5842 5843 5843 5843 5843 5843 5843 5843 5843 5843 5844 5843 5845 5849 5850 5850 5850 5848 5846 5845 5845 5844 5844 5844 5844 5843 5843 5842 5841 5841 5840 5839 5838 5837 5836 5836 5836 5836 5836 5835 5833 5830 5831 5832 5827 5824 5826 5823 5823 5830 5833 5832 5828 5822 5818 5813 5806 5810 5821 5825 5824 5822 5819 5818 5817 5819 5820 5819 5818 5817 5816 5814 5813 5813
5831 5832 5832 5833 5834 5834 5834 5835 5835 5835 5836 5836 5836 5837 5837 5838 5838 5839 5839 5839 5839 5839 5839 5839 5839 5839 5840 5844 5846 5845 5845 5844 5842 5841 5841 5840 5840 5840 5840 5839 5839 5838 5837 5837 5836 5835 5834 5832 5832 5831 5831 5832 5833 5831 5828 5824 5826 5828 5822 5818 5819 5819 5818 5822 5829 5830 5824 5816 5812 5808 5802 5804 5814 5819 5819 5819 5817 5814 5813 5815 5816 5815 5814 5813 5812 5811 5810 5810
5826 5827 5828 5828 5828 5829 5829 5830 5830 5830 5831 5831 5831 5832 5832 5833 5833 5834 5834 5834 5834 5834 5834 5834 5835 5834 5834 5838 5841 5841 5840 5839 5838 5837 5836 5836 5836 5836 5836 5835 5835 5834 5833 5832 5831 5831 5830 5828 5827 5826 5827 5829 5830 5828 5822 5818 5821 5821 5818 5815 5814 5816 5814 5815 5821 5825 5820 5811 5806 5804 5800 5802 5808 5812 5814 5816 5814 5811 5811 5811 5811 5811 5810 5809 5808 5807 5807 5806
5821 5822 5822 5823 5823 5823 5824 5824 5825 5825 5825 5826 5826 5826 5827 5827 5828 5828 5828 5828 5829 5829 5829 5829 5830 5829 5829 5832 5835 5835 5834 5833 5833 5832 5832 5833 5832 5832 5831 5831 5830 5830 5828 5827 5827 5826 5825 5823 5822 5821 5823 5827 5827 5823 5816 5814 5815 5814 5813 5812 5810 5810 5810 5810 5815 5817 5813 5807 5802 5799 5798 5799 5802 5806 5811 5812 5809 5807 5808 5808 5807 5807 5807 5805 5804 5803 5802 5801
5816 5816 5817 5817 5818 5818 5819 5819 5819 5820 5820 5820 5821 5821 5821 5822 5822 5822 5822 5823 5824 5824 5823 5824 5825 5824 5824 5827 5828 5828 5828 5829 5828 5828 5828 5829 5828 5828 5827 5826 5826 5825 5824 5823 5822 5821 5820 5818 5816 5816 5821 5824 5821 5816 5812 5811 5811 5808 5808 5806 5805 5804 5804 5807 5809 5808 5805 5800 5796 5797 5796 5794 5796 5801 5806 5806 5804 5802 5804 5804 5802 5803 5802 5801 5800 5798 5797 5796
5810 5811 5811 5812 5813 5813 5813 5814 5814 5815 5815 5815 5815 5815 5816 5816 5816 5816 5816 5817 5818 5818 5818 5818 5819 5819 5820 5822 5822 5821 5821 5823 5823 5824 5825 5824 5824 5823 5822 5822 5821 5820 5820 5819 5817 5816 5816 5812 5811 5815 5819 5817 5813 5810 5809 5808 5806 5804 5803 5801 5801 5799 5798 5802 5804 5801 5798 5792 5789 5793 5793 5789 5791 5795 5798 5800 5799 5799 5799 5799 5798 5799 5798 5796 5795 5793 5792 5791
5805 5805 5806 5806 5807 5807 5807 5808 5808 5809 5809 5809 5809 5809 5809 5810 5810 5810 5811 5812 5813 5812 5812 5813 5813 5813 5815 5816 5815 5814 5814 5815 5817 5819 5820 5820 5819 5818 5817 5817 5816 5815 5815 5814 5811 5811 5810 5806 5807 5813 5813 5809 5807 5807 5805 5803 5802 5800 5798 5797 5795 5794 5794 5796 5797 5795 5793 5787 5783 5786 5786 5784 5787 5789 5789 5792 5795 5796 5795 5793 5793 5794 5793 5791 5789 5788 5786 5786
5799 5800 5800 5801 5801 5801 5801 5802 5802 5802 5803 5803 5803 5803 5803 5803 5803 5803 5803 5806 5809 5808 5805 5807 5807 5806 5809 5808 5808 5808 5807 5809 5812 5813 5814 5814 5814 5813 5811 5811 5811 5810 5810 5808 5808 5807 5803 5801 5804 5807 5805 5804 5803 5802 5800 5798 5797 5796 5795 5793 5790 5791 5790 5788 5790 5791 5788 5783 5780 5780 5778 5778 5782 5783 5781 5783 5789 5792 5791 5788 5787 5788 5789 5787 5784 5783 5782 5781
5793 5794 5794 5794 5795 5795 5795 5796 5796 5796 5796 5796 5797 5797 5796 5796 5797 5797 5796 5796 5802 5805 5802 5801 5800 5800 5801 5800 5801 5802 5801 5803 5805 5806 5807 5807 5807 5807 5805 5805 5805 5804 5804 5804 5804 5801 5797 5796 5800 5800 5799 5799 5798 5796 5794 5792 5792 5792 5791 5789 5785 5787 5786 5782 5783 5785 5784 5781 5777 5775 5773 5773 5775 5775 5777 5777 5780 5786 5787 5784 5783 5782 5783 5783 5781 5780 5778 5777
5787 5787 5788 5788 5788 5789 5789 5789 5790 5790 5790 5790 5791 5791 5791 5791 5790 5790 5790 5788 5791 5798 5799 5797 5795 5793 5793 5793 5794 5795 5795 5797 5798 5799 5800 5799 5800 5800 5799 5799 5798 5798 5799 5799 5798 5794 5792 5792 5794 5794 5793 5792 5791 5790 5789 5787 5788 5788 5786 5784 5782 5783 5781 5778 5777 5777 5777 5777 5775 5773 5769 5768 5767 5767 5772 5773 5772 5777 5780 5778 5777 5776 5776 5777 5777 5776 5774 5773
5780 5780 5781 5782 5782 5782 5782 5783 5783 5783 5784 5784 5785 5785 5785 5785 5785 5785 5785 5783 5782 5787 5791 5792 5790 5787 5786 5787 5788 5789 5790 5791 5791 5792 5792 5792 5792 5793 5793 5793 5792 5792 5793 5792 5790 5788 5788 5788 5789 5788 5787 5786 5784 5784 5783 5783 5782 5781 5780 5780 5779 5778 5776 5775 5773 5771 5769 5769 5771 5771 5766 5764 5762 5760 5765 5769 5767 5768 5771 5772 5771 5769 5768 5769 5769 5769 5769 5768
5773 5774 5775 5775 5775 5775 5776 5776 5776 5777 5777 5778 5779 5779 5779 5779 5780 5779 5779 5778 5776 5778 5779 5781 5784 5783 5782 5782 5781 5783 5784 5785 5786 5786 5785 5786 5786 5786 5786 5787 5786 5786 5786 5785 5783 5783 5784 5785 5784 5782 5781 5779 5778 5779 5779 5777 5775 5773 5775 5776 5774 5772 5771 5770 5769 5767 5765 5763 5763 5765 5762 5760 5758 5756 5761 5765 5763 5760 5763 5766 5766 5764 5763 5762 5760 5760 5760 5761
5767 5768 5769 5769 5770 5769 5769 5770 5770 5771 5771 5772 5773 5773 5773 5774 5774 5775 5775 5773 5771 5771 5769 5770 5774 5776 5777 5778 5777 5778 5778 5778 5779 5779 5779 5780 5780 5780 5780 5780 5780 5779 5779 5778 5776 5777 5779 5778 5777 5776 5775 5773 5773 5774 5773 5770 5768 5768 5769 5769 5767 5766 5766 5765 5763 5762 5761 5759 5757 5756 5756 5754 5753 5752 5754 5758 5756 5754 5755 5757 5756 5757 5758 5756 5755 5754 5753 5753
5762 5763 5763 5763 5764 5764 5764 5764 5764 5765 5765 5766 5767 5767 5768 5769 5769 5770 5770 5768 5766 5765 5763 5763 5765 5767 5770 5771 5772 5773 5773 5774 5774 5773 5773 5773 5773 5774 5773 5774 5773 5772 5773 5771 5770 5772 5772 5771 5770 5769 5768 5768 5769 5768 5766 5764 5763 5763 5763 5762 5761 5761 5760 5759 5758 5757 5755 5754 5751 5749 5750 5750 5749 5749 5748 5748 5747 5746 5749 5749 5746 5747 5747 5747 5748 5748 5748 5747
5757 5758 5758 5758 5758 5759 5759 5760 5759 5759 5759 5760 5762 5762 5763 5764 5764 5765 5764 5761 5759 5758 5759 5760 5759 5760 5762 5763 5764 5766 5767 5768 5767 5767 5767 5766 5766 5767 5767 5767 5766 5766 5766 5765 5765 5765 5765 5764 5763 5762 5762 5763 5763 5761 5760 5759 5758 5758 5757 5756 5755 5755 5754 5753 5752 5751 5750 5748 5745 5744 5747 5746 5746 5746 5743 5741 5740 5740 5743 5744 5741 5741 5739 5737 5736 5737 5739 5740
5753 5753 5753 5753 5753 5753 5754 5755 5754 5754 5754 5755 5756 5757 5758 5759 5759 5759 5756 5754 5754 5753 5755 5756 5755 5755 5756 5757 5757 5758 5758 5759 5759 5759 5759 5759 5760 5760 5760 5759 5758 5758 5758 5758 5759 5759 5758 5758 5757 5757 5757 5757 5756 5755 5755 5754 5752 5752 5752 5751 5749 5748 5747 5746 5744 5745 5743 5741 5742 5743 5745 5744 5742 5740 5737 5736 5737 5735 5735 5735 5736 5735 5734 5730 5727 5728 5730 5730
5747 5747 5747 5747 5748 5748 5749 5749 5748 5749 5749 5749 5750 5751 5752 5753 5754 5753 5749 5749 5749 5749 5751 5751 5749 5751 5751 5751 5751 5750 5750 5751 5751 5752 5752 5752 5753 5753 5753 5752 5751 5750 5749 5750 5752 5751 5751 5751 5751 5752 5752 5751 5750 5749 5748 5747 5747 5747 5745 5744 5742 5740 5740 5738 5738 5739 5736 5737 5740 5741 5740 5739 5738 5735 5732 5733 5734 5731 5729 5728 5727 5726 5725 5723 5720 5721 5723 5722
5741 5741 5741 5741 5742 5742 5742 5742 5742 5743 5743 5744 5744 5745 5746 5746 5747 5746 5744 5745 5745 5745 5747 5747 5745 5745 5745 5745 5745 5744 5743 5743 5743 5744 5744 5744 5745 5747 5747 5746 5745 5743 5742 5743 5744 5743 5744 5744 5744 5744 5744 5745 5743 5741 5741 5741 5740 5739 5738 5737 5734 5733 5732 5729 5730 5731 5730 5733 5735 5735 5733 5730 5732 5732 5728 5729 5731 5729 5727 5724 5721 5718 5714 5713 5712 5713 5715 5715
5733 5734 5735 5735 5736 5736 5735 5736 5736 5735 5736 5737 5737 5739 5740 5739 5739 5740 5740 5742 5741 5740 5742 5741 5740 5740 5739 5739 5739 5737 5737 5736 5736 5737 5736 5737 5738 5739 5740 5739 5739 5737 5735 5736 5736 5736 5737 5738 5739 5737 5737 5738 5736 5734 5733 5732 5732 5730 5730 5729 5726 5725 5723 5720 5722 5723 5723 5725 5726 5727 5725 5721 5726 5727 5723 5725 5726 5724 5722 5718 5714 5710 5707 5706 5706 5706 5705 5704
5724 5725 5726 5728 5728 5728 5728 5728 5728 5728 5728 5729 5730 5731 5732 5732 5734 5735 5736 5738 5737 5736 5737 5735 5734 5733 5733 5734 5733 5732 5731 5729 5729 5731 5730 5730 5730 5731 5733 5733 5733 5730 5728 5728 5728 5729 5728 5730 5733 5730 5729 5732 5731 5728 5726 5724 5723 5722 5723 5720 5717 5719 5717 5713 5714 5715 5714 5714 5714 5716 5714 5714 5720 5719 5716 5718 5717 5715 5713 5710 5705 5700 5700 5700 5699 5697 5694 5694
5716 5717 5719 5720 5720 5720 5720 5720 5721 5720 5720 5720 5721 5722 5724 5727 5729 5729 5729 5729 5728 5728 5730 5729 5728 5727 5727 5727 5726 5726 5724 5721 5723 5724 5723 5723 5723 5724 5726 5726 5725 5722 5721 5720 5720 5720 5719 5720 5724 5722 5720 5723 5723 5721 5719 5717 5715 5714 5715 5712 5709 5712 5710 5705 5704 5705 5706 5702 5702 5705 5703 5706 5713 5714 5713 5710 5707 5707 5701 5698 5698 5693 5690 5690 5687 5686 5685 5685
5709 5710 5712 5713 5712 5711 5712 5713 5713 5712 5712 5713 5711 5713 5719 5722 5722 5722 5722 5721 5720 5720 5721 5720 5720 5720 5719 5719 5719 5719 5717 5715 5715 5715 5715 5715 5715 5717 5719 5719 5718 5715 5714 5712 5710 5710 5708 5709 5715 5713 5709 5710 5711 5710 5711 5710 5707 5705 5706 5705 5703 5703 5701 5697 5693 5695 5696 5690 5690 5697 5696 5698 5704 5705 5707 5704 5699 5697 5691 5689 5692 5686 5681 5680 5677 5677 5676 5676
5703 5704 5705 5706 5704 5703 5704 5705 5704 5703 5704 5704 5702 5707 5714 5715 5715 5715 5714 5714 5713 5711 5711 5710 5711 5712 5710 5711 5712 5711 5709 5707 5707 5707 5707 5707 5705 5708 5711 5710 5709 5708 5706 5705 5702 5701 5699 5698 5704 5705 5699 5699 5700 5700 5699 5698 5696 5694 5695 5697 5696 5693 5691 5689 5684 5683 5684 5679 5679 5687 5688 5691 5694 5694 5697 5696 5689 5685 5683 5684 5683 5676 5673 5672 5670 5669 5667 5666
5696 5697 5698 5698 5697 5695 5696 5697 5695 5695 5695 5694 5695 5701 5705 5705 5708 5708 5706 5705 5704 5701 5701 5701 5702 5703 5703 5703 5703 5703 5700 5698 5698 5698 5699 5700 5697 5699 5702 5700 5699 5699 5698 5696 5693 5691 5690 5688 5692 5698 5693 5689 5692 5693 5689 5688 5687 5686 5685 5686 5686 5683 5681 5681 5676 5673 5674 5670 5668 5673 5675 5678 5681 5683 5687 5685 5678 5673 5675 5677 5673 5667 5665 5663 5662 5661 5659 5658
5688 5688 5689 5690 5689 5687 5687 5688 5687 5686 5685 5686 5690 5694 5696 5697 5698 5698 5696 5696 5695 5693 5692 5693 5694 5693 5694 5695 5695 5694 5693 5690 5690 5690 5689 5690 5689 5692 5692 5689 5690 5691 5689 5688 5684 5682 5682 5678 5679 5687 5687 5680 5681 5685 5682 5680 5681 5680 5677 5676 5676 5675 5673 5672 5669 5666 5665 5662 5659 5659 5660 5663 5669 5675 5677 5672 5666 5664 5665 5667 5664 5661 5657 5654 5653 5653 5652 5651
5680 5679 5680 5682 5682 5680 5680 5679 5678 5677 5676 5680 5685 5686 5687 5688 5688 5689 5688 5687 5686 5684 5684 5684 5685 5684 5685 5687 5686 5686 5685 5682 5682 5682 5680 5680 5682 5683 5683 5681 5682 5682 5681 5680 5677 5674 5673 5670 5668 5675 5677 5672 5672 5677 5676 5673 5672 5671 5669 5668 5668 5668 5667 5664 5661 5660 5659 5654 5651 5650 5646 5649 5661 5667 5664 5660 5658 5657 5656 5655 5654 5652 5648 5645 5644 5644 5644 5643
5672 5672 5672 5674 5673 5672 5672 5670 5670 5671 5670 5673 5677 5677 5678 5679 5679 5679 5678 5677 5676 5675 5675 5676 5676 5676 5677 5678 5679 5678 5676 5674 5675 5674 5672 5673 5675 5674 5674 5675 5674 5674 5675 5674 5671 5669 5667 5664 5660 5663 5666 5667 5669 5671 5668 5664 5663 5662 5659 5659 5660 5661 5661 5656 5651 5654 5655 5648 5645 5643 5635 5638 5654 5658 5652 5651 5651 5649 5647 5645 5644 5643 5640 5638 5637 5635 5634 5634
5665 5664 5664 5665 5665 5664 5663 5661 5663 5664 5662 5666 5670 5669 5669 5670 5671 5670 5668 5667 5667 5667 5668 5667 5668 5669 5669 5669 5670 5669 5667 5666 5667 5667 5665 5666 5668 5666 5667 5668 5666 5666 5667 5666 5665 5665 5662 5657 5654 5654 5658 5661 5663 5663 5659 5655 5654 5654 5651 5651 5652 5652 5651 5647 5640 5642 5645 5640 5638 5637 5627 5627 5642 5649 5645 5643 5642 5639 5638 5637 5637 5635 5634 5632 5630 5627 5625 5623
5657 5656 5656 5657 5656 5656 5654 5654 5656 5656 5656 5660 5662 5661 5661 5661 5663 5663 5661 5659 5658 5659 5659 5659 5659 5660 5660 5661 5661 5659 5659 5657 5656 5659 5658 5657 5659 5659 5659 5660 5659 5659 5659 5656 5656 5657 5653 5650 5647 5645 5647 5650 5653 5654 5651 5647 5646 5644 5643 5645 5644 5642 5642 5639 5633 5632 5631 5628 5630 5628 5618 5618 5629 5636 5635 5632 5631 5630 5629 5628 5628 5626 5626 5625 5623 5621 5618 5615
5648 5648 5649 5648 5648 5647 5646 5648 5650 5649 5650 5653 5651 5652 5653 5653 5655 5656 5654 5651 5651 5651 5651 5650 5652 5652 5651 5652 5651 5651 5652 5648 5646 5650 5651 5649 5650 5651 5652 5652 5651 5651 5650 5648 5647 5646 5644 5642 5640 5637 5635 5636 5642 5645 5643 5639 5638 5634 5634 5636 5635 5635 5634 5629 5627 5625 5618 5615 5620 5617 5609 5613 5621 5621 5620 5621 5621 5620 5619 5618 5617 5616 5614 5614 5613 5611 5610 5607
5640 5640 5641 5640 5639 5639 5639 5642 5644 5642 5643 5644 5642 5644 5646 5645 5648 5648 5645 5644 5643 5643 5642 5642 5644 5644 5643 5643 5643 5643 5644 5641 5639 5640 5642 5642 5642 5642 5643 5643 5642 5643 5642 5640 5639 5637 5634 5634 5634 5631 5626 5626 5629 5633 5633 5631 5628 5624 5624 5626 5626 5626 5625 5621 5619 5615 5608 5606 5608 5605 5602 5607 5612 5610 5610 5612 5610 5608 5608 5606 5605 5603 5602 5601 5600 5599 5598 5596
5631 5631 5632 5632 5631 5631 5632 5634 5636 5635 5635 5635 5634 5636 5638 5638 5639 5638 5636 5636 5635 5635 5634 5634 5635 5635 5634 5635 5634 5634 5635 5634 5631 5630 5633 5635 5633 5633 5635 5635 5634 5633 5633 5632 5631 5629 5625 5623 5625 5624 5620 5619 5620 5621 5622 5621 5617 5614 5614 5616 5617 5617 5616 5613 5608 5603 5601 5598 5594 5595 5597 5596 5597 5602 5603 5602 5598 5596 5596 5595 5593 5592 5590 5589 5588 5587 5585 5584
5623 5623 5624 5623 5622 5623 5625 5625 5626 5627 5627 5626 5625 5628 5631 5631 5629 5628 5628 5628 5627 5628 5627 5626 5626 5626 5626 5627 5626 5624 5625 5626 5623 5622 5625 5626 5625 5624 5625 5626 5626 5624 5624 5623 5621 5620 5616 5612 5615 5615 5611 5611 5612 5611 5612 5611 5607 5605 5605 5606 5608 5608 5606 5604 5596 5593 5595 5588 5578 5585 5591 5584 5583 5591 5591 5588 5586 5584 5584 5583 5582 5581 5579 5578 5577 5576 5574 5573
5614 5614 5615 5614 5613 5615 5616 5616 5618 5618 5617 5616 5616 5619 5623 5623 5620 5619 5619 5619 5619 5620 5619 5618 5619 5619 5617 5618 5616 5614 5616 5616 5615 5615 5617 5617 5617 5615 5614 5617 5617 5615 5616 5614 5612 5611 5606 5602 5607 5606 5600 5601 5604 5602 5602 5601 5596 5595 5595 5595 5597 5598 5597 5594 5587 5586 5587 5577 5568 5574 5579 5573 5573 5578 5576 5574 5574 5572 5571 5571 5570 5569 5567 5566 5565 5564 5563 5562
5605 5606 5606 5605 5606 5607 5607 5608 5609 5609 5608 5607 5607 5611 5614 5613 5612 5610 5610 5610 5610 5611 5611 5609 5610 5611 5610 5609 5607 5605 5607 5607 5606 5607 5608 5608 5608 5606 5605 5606 5606 5607 5607 5605 5604 5601 5596 5595 5597 5595 5590 5592 5594 5594 5594 5591 5586 5586 5586 5585 5585 5587 5587 5584 5581 5580 5577 5568 5563 5565 5562 5559 5564 5566 5562 5561 5561 5559 5558 5558 5557 5556 5554 5553 5553 5552 5551 5550
5596 5597 5598 5597 5598 5599 5599 5599 5600 5600 5600 5598 5599 5603 5604 5603 5604 5602 5600 5601 5601 5602 5602 5600 5601 5602 5602 5601 5599 5598 5599 5599 5597 5598 5599 5599 5598 5598 5597 5596 5596 5598 5598 5597 5596 5592 5587 5587 5587 5584 5580 5579 5583 5586 5584 5580 5577 5575 5575 5575 5577 5577 5576 5573 5572 5572 5567 5560 5558 5557 5551 5548 5553 5554 5550 5548 5547 5546 5546 5545 5544 5543 5541 5540 5540 5539 5540 5539
5588 5589 5590 5590 5590 5591 5591 5591 5591 5591 5592 5591 5591 5593 5593 5593 5596 5594 5592 5593 5593 5593 5593 5592 5592 5593 5593 5593 5592 5591 5591 5591 5589 5589 5590 5590 5589 5589 5588 5587 5588 5588 5588 5589 5587 5583 5581 5577 5576 5575 5567 5566 5575 5575 5569 5568 5566 5561 5563 5569 5572 5570 5565 5562 5561 5559 5556 5552 5550 5548 5544 5541 5542 5541 5538 5535 5534 5534 5534 5533 5533 5531 5529 5528 5527 5527 5527 5527
5579 5580 5582 5582 5581 5583 5584 5584 5583 5583 5584 5585 5584 5584 5585 5585 5587 5586 5584 5584 5585 5585 5585 5584 5584 5584 5584 5584 5584 5583 5583 5582 5582 5581 5581 5581 5580 5580 5579 5578 5579 5580 5580 5580 5576 5575 5574 5568 5566 5565 5555 5554 5566 5564 5555 5554 5549 5546 5558 5567 5564 5559 5555 5551 5549 5548 5548 5545 5539 5535 5534 5533 5532 5530 5527 5525 5523 5522 5522 5522 5522 5520 5518 5516 5514 5514 5514 5513